Location: Unspecified
(0.0000°N, 0.0000°E)
Time: 05:56:14
(UTC+02:00)

Vanguard 1 Rocket - Visible Passes

Search period start: 25 April 2014 00:00
Search period end: 05 May 2014 00:00
Orbit: 650 x 4230 km, 34.3° (Epoch: 22 April)

Date Brightness Start Highest point End Pass type
(mag) Time Alt. Az. Time Alt. Az. Time Alt. Az.
25 Apr 10.5 00:21:49 10° W 00:37:11 34° NW 00:37:11 34° NW visible
25 Apr 10.4 20:28:45 10° SW 20:55:07 65° SE 21:13:30 10° ENE visible
25 Apr 10.0 23:03:38 10° WSW 23:26:44 56° NW 23:31:45 45° N visible
26 Apr 10.2 21:47:09 10° SW 22:13:23 80° NW 22:26:26 21° NE visible
27 Apr 10.6 00:27:30 10° W 00:42:58 27° NW 00:43:54 27° NW visible
27 Apr 10.4 20:32:09 10° SW 20:58:58 77° SE 21:17:47 10° ENE visible
27 Apr 10.4 23:08:13 10° WSW 23:30:18 45° NW 23:38:39 27° NNE visible
28 Apr 10.4 21:51:04 10° WSW 22:16:55 67° NW 22:33:05 10° NE visible
29 Apr 10.8 00:33:56 10° W 00:47:03 21° NW 00:50:54 19° NNW visible
29 Apr 10.5 20:35:43 10° SW 21:02:36 90° SE 21:21:50 10° NE visible
29 Apr 10.8 23:13:20 10° W 23:33:59 37° NW 23:45:38 14° NNE visible
30 Apr 9.5 07:04:07 10° N 07:06:03 13° NE 07:08:00 10° ENE visible
30 Apr 10.7 21:55:20 10° WSW 22:20:26 56° NW 22:36:44 10° NE visible
01 May 11.0 00:41:10 10° WNW 00:51:27 17° NW 00:57:47 12° N visible
01 May 10.6 20:39:29 10° WSW 21:06:07 77° NW 21:25:41 10° NE visible
01 May 11.0 23:19:04 10° W 23:37:55 30° NW 23:50:18 10° NNE visible
02 May 9.0 07:06:40 10° NNW 07:10:13 23° NE 07:13:53 10° E visible
02 May 11.0 22:00:01 10° WSW 22:24:04 46° NW 22:40:18 10° NNE visible
03 May 11.1 00:49:16 10° NW 00:56:15 13° NNW 01:01:51 10° N visible
03 May 10.9 20:43:32 10° WSW 21:09:37 66° NW 21:29:22 10° NE visible
03 May 11.1 23:25:29 10° W 23:42:10 24° NW 23:53:43 10° NNE visible
04 May 7.9 07:10:04 10° NW 07:14:22 42° NE 07:18:46 10° ESE visible
04 May 11.2 22:05:12 10° W 22:27:53 38° NW 22:43:48 10° NNE visible
